{"data":{"norad_id":55142,"intl_designator":"2023-004C","name":"ONEWEB-0541","alt_names":[],"object_type":"PAYLOAD","status":"ACTIVE","operator":null,"country":"UK","launch_date":"2023-01-10","launch_site_code":"AFETR","launch_vehicle":null,"mission":null,"orbit_class":"UNKNOWN","rcs_meters":null,"size_class":null,"mass_kg":null,"dimensions":null,"purposes":["comms"],"wikipedia_slug":null,"has_3d_model":false,"image_url":null,"decayed_at":null,"tle_current":{"epoch":"2026-09-19T13:28:27.981408Z","epoch_age_seconds":103009,"freshness":"FRESH","line1":"1 55142U 23004C   26262.56143497 -.00001734  00000+0 -49296-2 0  9991","line2":"2 55142  87.8972   2.3023 0001628 104.1396 255.9913 13.11403557178315","mean_motion":13.11403557,"eccentricity":0.0001628,"inclination_deg":87.8972,"raan_deg":2.3023,"arg_perigee_deg":104.1396,"mean_anomaly_deg":255.9913,"bstar":-0.0049296,"rev_number":17831,"period_min":109.80601602867,"perigee_km":1216.4977871124,"apogee_km":1218.9710028386,"semimajor_km":7595.8713949755,"source":"CELESTRAK","updated_at":"2026-09-20T09:00:44.750245Z"}}}